Content
SEND FEEDBACK

Daily
Averages
Monthly
Summary
France

ROUEN, FRANCE


Home > Europe > France
Elevation: 515 feet     Latitude: 49 23N     Longitude: 001 11E

WEATHER
 
SELECT A DAY
Number of Records: 184,855;   Date Range: 7/1/96 - 12/27/14
 
SHARE

PRINT THIS DATA

[ ← Previous Day ]
WEATHER ALMANAC - JANUARY 10, 2013
[ Next Day → ]
[ °C ]   °F
Weather ElementAverageHighLow
Temperature44.4 °F46.4 °F (2:00 pm)42.8 °F (3:00 am)
Dewpoint43.1 °F44.6 °F (11:30 am)41 °F (7:30 pm)
Humidity95 %100 % (3:00 am)87 % (7:30 pm)
Barometer29.97 in30.09 in (1:00 am)29.89 in (6:00 pm)
Wind Speed4.2 mph8.1 mph (10:00 pm)
Weather ElementAverage
Visibility1.6 mi
Wind DirectionSSW (205.9 °)

Weather ElementTotal
Precipitation---
Heating Degree Days20.4 (Base 65)
Averaged from 51 records on January 10, 2013
WEATHER CONDITIONS BREAKOUT
WIND DIRECTION BREAKOUT
WEATHER BY HOUR - JANUARY 10, 2013
[ °C ]   °F
Local TimeTemperatureDewpointHumidityBarometerVisibilityWind DirectionWind SpeedGust SpeedPrecipitationEventsConditions
12:30 AM44.6 °F42.8 °F93 %30.06 in0.1 miWSW (250°)4.6 mphFogFog
1:00 AM44.0 °F43.0 °F95 %30.09 in0.0 miSW (230°)4.6 mphFogHeavy Fog
1:00 AM44.6 °F42.8 °F93 %30.06 in0.1 miSW (230°)4.6 mphFogFog
1:30 AM44.6 °F42.8 °F93 %30.06 in0.1 miWSW (250°)4.6 mphFogFog
2:00 AM44.6 °F42.8 °F93 %30.04 in0.1 miWSW (240°)3.5 mphFogFog
2:30 AM44.6 °F42.8 °F93 %30.04 in0.1 miSSW (210°)4.6 mphFogFog
3:00 AM42.8 °F42.8 °F100 %30.04 in0.1 miSSW (210°)4.6 mphFogFog
3:30 AM42.8 °F42.8 °F100 %30.04 in0.1 miSW (230°)3.5 mphFogFog
4:00 AM42.8 °F42.8 °F100 %30.04 in0.1 miWest (270°)2.3 mphFogFog
4:30 AM44.6 °F42.8 °F93 %30.01 in0.1 miWSW (240°)4.6 mphFogFog
5:00 AM42.8 °F42.8 °F100 %30.01 in0.2 miSW (220°)5.8 mphFogFog
5:30 AM42.8 °F42.8 °F100 %30.01 in0.1 miVariable2.3 mphFogFog
6:00 AM42.8 °F42.8 °F100 %30.01 in0.1 miWSW (240°)2.3 mphFogFog
6:30 AM42.8 °F42.8 °F100 %30.01 in0.1 miSSW (200°)2.3 mphFogFog
7:00 AM44.0 °F43.0 °F94 %30.03 in0.0 miWest (260°)2.3 mphFogHeavy Fog
7:00 AM42.8 °F42.8 °F100 %30.01 in0.1 miWest (270°)2.3 mphFogFog
7:30 AM42.8 °F42.8 °F100 %30.01 in0.1 miVariable2.3 mphFogFog
8:00 AM44.6 °F42.8 °F93 %30.01 in0.1 miEast (100°)2.3 mphFogFog
8:30 AM42.8 °F42.8 °F100 %30.01 in0.1 miSouth (190°)2.3 mphFogFog
9:00 AM42.8 °F42.8 °F100 %29.98 in0.1 miSSW (200°)5.8 mphFogFog
9:30 AM42.8 °F42.8 °F100 %29.98 inSouth (180°)3.5 mphFogLight Drizzle
10:00 AM44.6 °F42.8 °F93 %29.98 inSSE (150°)3.5 mphFogDrizzle
10:30 AM44.6 °F42.8 °F93 %29.98 in0.2 miSSW (200°)3.5 mphFogFog
11:00 AM44.6 °F42.8 °F93 %29.98 in0.4 miSW (220°)3.5 mphFogLight Drizzle
11:30 AM44.6 °F44.6 °F100 %29.98 in1.2 miWSW (240°)4.6 mphLight Drizzle
12:00 PM44.6 °F44.6 °F100 %29.98 inSW (230°)3.5 mphLight Drizzle
12:30 PM44.6 °F44.6 °F100 %29.95 in1.7 miSSW (210°)4.6 mphMist
1:00 PM45.0 °F44.0 °F96 %29.98 in1.0 miSW (230°)4.6 mphRainLight Drizzle
1:00 PM44.6 °F44.6 °F100 %29.95 in0.7 miWSW (240°)4.6 mphMist
1:30 PM44.6 °F44.6 °F100 %29.95 in0.6 miVariable3.5 mphFogFog
2:00 PM46.4 °F44.6 °F93 %29.95 in1.1 miVariable2.3 mphDrizzle
2:30 PM46.4 °F44.6 °F93 %29.92 in0.9 miWNW (300°)3.5 mphDrizzle
3:00 PM46.4 °F44.6 °F93 %29.92 in1.4 miVariable3.5 mphLight Drizzle
3:30 PM46.4 °F44.6 °F93 %29.92 in1.0 miWest (270°)4.6 mphRainLight Rain
4:00 PM46.4 °F44.6 °F93 %29.92 in0.6 miWNW (300°)6.9 mphDrizzle
4:30 PM46.4 °F44.6 °F93 %29.92 in3.7 miWNW (300°)5.8 mphOvercast
5:00 PM46.4 °F44.6 °F93 %29.92 in1.4 miWest (280°)6.9 mphOvercast
5:30 PM46.4 °F44.6 °F93 %29.92 inWest (270°)5.8 mphOvercast
6:00 PM46.4 °F44.6 °F93 %29.89 in3.7 miWest (270°)5.8 mphOvercast
6:30 PM46.4 °F44.6 °F93 %29.89 in4.3 miWest (280°)4.6 mphOvercast
7:00 PM46.0 °F44.0 °F92 %29.92 in4.0 miWNW (300°)4.6 mphClear
7:00 PM46.4 °F44.6 °F93 %29.89 in5.0 miWNW (300°)4.6 mphOvercast
7:30 PM44.6 °F41.0 °F87 %29.89 in6.2 miNNE (20°)6.9 mphOvercast
8:00 PM44.6 °F41.0 °F87 %29.89 in6.2 miNNE (20°)5.8 mphLight Drizzle
8:30 PM44.6 °F41.0 °F87 %29.89 in6.2 miNE (50°)2.3 mphOvercast
9:00 PM44.6 °F41.0 °F87 %29.89 in6.2 miVariable2.3 mphOvercast
9:30 PM42.8 °F41.0 °F93 %29.92 in3.7 miNNW (330°)4.6 mphOvercast
10:00 PM42.8 °F41.0 °F93 %29.92 in5.0 miNNW (340°)8.1 mphRainLight Rain
10:30 PM42.8 °F41.0 °F93 %29.92 in3.7 miNNW (330°)4.6 mphRainLight Rain
11:00 PM42.8 °F41.0 °F93 %29.92 in2.2 miWNW (300°)3.5 mphRainLight Rain
11:30 PM42.8 °F41.0 °F93 %29.92 in1.0 miWNW (300°)4.6 mphMostly Cloudy
Hourly data recorded from LFOP, located miles away from Rouen, France







STORIES FROM OUR PARTNERS